User: anonymous
Location: Nirvana
(45.0297°N, 77.2628°W)
Time: 10:14:49
(UTC-04:00)
Language:

H-2A R/B - Orbit

View from above orbital plane
View from above orbital plane
View from above satellite
View from above satellite

Ground track
Ground track

The orbit data is extracted from the following two-line orbital elements,

1 27601U 02056E   14273.30253697  .00000254  00000-0  10880-3 0  1994
2 27601 098.4768 353.5065 0071889 349.4837 055.7702 14.31418149616025
Epoch (UTC): 30 September 2014 07:15:39
Eccentricity: 0.0071889
inclination: 98.4768°
perigee height: 735 km
apogee height: 838 km
right ascension of ascending node: 353.5065°
argument of perigee: 349.4837°
revolutions per day: 14.31418149
mean anomaly at epoch: 55.7702°
orbit number at epoch: 61602

The dashed part of the orbit path shows where the satellite is in the earth's shadow,  

DLR